Las Vegas, NM

5:39 PM MDT on May 23, 2018 (GMT -0600)
Las Vegas Municipal

Weather History for KLVS - May, 2013

Change the Weather History Date:

Tuesday, May 14, 2013

  Actual Average Record
Temperature  
Mean Temperature 62 °F -  
Max Temperature 81 °F 71 °F 85 °F (1978)
Min Temperature 43 °F 39 °F 26 °F (2014)
Degree Days  
Heating Degree Days 4    
Growing Degree Days 12 (Base 50)    
Moisture  
Dew Point 22 °F    
Average Humidity 23    
Maximum Humidity 42    
Minimum Humidity 11    
Precipitation  
Precipitation 0.00 in - - ()
Sea Level Pressure  
Sea Level Pressure 29.89 in    
Wind  
Wind Speed 13 mph (SW)    
Max Wind Speed 23 mph    
Max Gust Speed 38 mph    
Visibility 10 miles    
Events Rain    
Averages and records for this station are not official NWS values.
T = Trace of Precipitation, MM = Missing Value Source: NWS Daily Summary

Daily Weather History Graph

Daily Weather History Graph

Search for Another Location

Airport or City:

Astronomy

May. 14, 2013 Rise Set
Actual Time 5:56 AM MDT 7:58 PM MDT
Civil Twilight 5:27 AM MDT 8:26 PM MDT
Nautical Twilight 4:53 AM MDT 9:01 PM MDT
Astronomical Twilight 4:16 AM MDT 9:38 PM MDT
Moon 9:37 AM MDT (5/14) 11:48 PM MDT (5/14)
Length of Visible Light 14h 58m
Length of Day
14h 02m
Waxing Crescent, 19% of the Moon is Illuminated
May 14
Waxing Crescent
May 17
First Quarter
May 24
Full
May 31
Last Quarter
Jun 8
New

Hourly Weather History & Observations

Time (MDT) Temp. Windchill Dew Point Humidity Pressure Visibility Wind Dir Wind Speed Gust Speed Precip Events Conditions
12:53 AM 52.0 °F - 16.0 °F 24% 30.00 in 10.0 mi SSW 16.1 mph - N/A   Clear
1:53 AM 50.0 °F - 16.0 °F 26% 29.99 in 10.0 mi SSW 16.1 mph - N/A   Clear
2:53 AM 51.1 °F - 15.1 °F 24% 29.96 in 10.0 mi South 16.1 mph - N/A   Clear
3:53 AM 48.0 °F - 15.1 °F 27% 29.96 in 10.0 mi South 17.3 mph - N/A   Clear
4:53 AM 46.9 °F - 14.0 °F 27% 29.95 in 10.0 mi South 15.0 mph - N/A   Clear
5:53 AM 43.0 °F 36.4 °F 12.9 °F 30% 29.96 in 10.0 mi South 12.7 mph - N/A   Clear
6:53 AM 46.9 °F - 15.1 °F 28% 29.98 in 10.0 mi SW 4.6 mph - N/A   Clear
7:53 AM 54.0 °F - 16.0 °F 22% 29.96 in 10.0 mi Calm Calm - N/A   Clear
8:53 AM 62.1 °F - 17.1 °F 18% 29.96 in 10.0 mi SSW 11.5 mph - N/A   Clear
9:53 AM 68.0 °F - 17.1 °F 14% 29.92 in 10.0 mi South 11.5 mph - N/A   Clear
10:53 AM 73.0 °F - 18.0 °F 12% 29.91 in 10.0 mi SSE 16.1 mph - N/A   Clear
11:53 AM 75.0 °F - 21.9 °F 14% 29.87 in 10.0 mi South 10.4 mph 24.2 mph N/A   Clear
12:53 PM 77.0 °F - 21.0 °F 12% 29.83 in 10.0 mi South 10.4 mph 23.0 mph N/A   Clear
1:53 PM 78.1 °F - 19.9 °F 11% 29.81 in 10.0 mi SSE 11.5 mph 23.0 mph N/A   Clear
2:53 PM 80.1 °F - 19.9 °F 11% 29.76 in 10.0 mi SE 12.7 mph 26.5 mph N/A   Clear
3:53 PM 80.1 °F - 23.0 °F 12% 29.76 in 10.0 mi West 16.1 mph 25.3 mph N/A   Partly Cloudy
4:53 PM 73.9 °F - 21.0 °F 14% 29.78 in 10.0 mi NW 13.8 mph 24.2 mph N/A   Scattered Clouds
5:53 PM 70.0 °F - 27.0 °F 20% 29.82 in 10.0 mi NNW 16.1 mph - N/A   Overcast
6:29 PM 66.2 °F - 30.2 °F 26% 30.10 in 10.0 mi WNW 21.9 mph 38.0 mph 0.00 in Rain Light Rain
6:42 PM 66.2 °F - 30.2 °F 26% 30.08 in 10.0 mi NW 23.0 mph 29.9 mph 0.00 in   Mostly Cloudy
6:53 PM 66.9 °F - 30.9 °F 26% 29.83 in 10.0 mi NW 15.0 mph - 0.00 in   Scattered Clouds
7:53 PM 62.1 °F - 28.9 °F 29% 29.83 in 10.0 mi West 8.1 mph - N/A   Clear
8:53 PM 57.0 °F - 30.0 °F 36% 29.82 in 10.0 mi NW 8.1 mph - N/A   Clear
9:53 PM 55.9 °F - 28.9 °F 36% 29.82 in 10.0 mi NNW 8.1 mph - N/A   Clear
10:53 PM 55.0 °F - 30.0 °F 38% 29.81 in 10.0 mi North 9.2 mph - N/A   Clear
11:53 PM 55.0 °F - 32.0 °F 42% 29.78 in 10.0 mi North 5.8 mph - N/A   Clear